Find Starlink 5389

NORAD ID: 54835 Int'l Des: 2022-177 Owner: SPXS Country: US Constellation: starlink operational
LEOCIRCULAR

实时位置

正在加载3D地球...

关于 Starlink 5389

正在加载描述...

即将过境

Passes for default location (London). Set your location on the main map for personalized predictions.

高度历史

Loading altitude history...

两行轨道根数

1 54835U 22177R 26125.20163044 -.00000401 00000-0 -52560-5 0 9990
2 54835 43.0039 177.1264 0001640 278.4813 81.5853 15.26739841185569
Epoch: May 5, 2026 • Age: 32 hours

当前状态

高度 485.3 km
速度 7.62 km/s
星下点 4.50°N, 74.62°W
发射日期 Dec 28, 2022
运行时间 3.3 years
类型 internet

技术详情

分类 Payload
质量 305.00 kg
干质量 290.00 kg
总质量 305.00 kg
长度 0.20 m
直径 2.80 m
跨度 9.00 m
形状 Box + pan
制造商 SPXS
平台类型 Starlink
阶段状态 In Orbit
所有者/国家 SPXS/US

Most Searched